Location: Grisols
(45.0093°N, 3.1167°E)
Time: 03:46:04
(UTC+00:00)

Cosmos 2084 Rocket - Pass Details

Date: 21 October 2019
Orbit: 572 x 609 km, 62.8° (Epoch: 20 November)

Event Time Altitude Azimuth Distance (km) Brightness Sun altitude
Rises 18:27:47 0° 322° (NW) 2,872 7.6 -17.4°
Reaches altitude 10° 18:30:05 10° 324° (NW) 1,962 6.6 -17.8°
Maximum altitude 18:34:31 73° 50° (NE) 634 3.4 -18.6°
Enters shadow 18:36:06 39° 125° (SE) 912 4.0 -18.9°
